{"data":{"norad_id":59493,"epoch":"2026-05-24T18:45:06.300288Z","epoch_age_seconds":97943,"freshness":"FRESH","line1":"1 59493U 24071K   26144.78132292  .00001054  00000+0  47848-4 0  9999","line2":"2 59493  43.0041 277.7373 0005178 277.4144  82.6120 15.27593941118577","mean_motion":15.27593941,"eccentricity":0.0005178,"inclination_deg":43.0041,"raan_deg":277.7373,"arg_perigee_deg":277.4144,"mean_anomaly_deg":82.612,"bstar":4.7848e-5,"rev_number":11857,"period_min":94.265888424338,"perigee_km":479.45465144242,"apogee_km":486.56005253333,"semimajor_km":6861.1443519879,"source":"CELESTRAK","updated_at":"2026-05-25T13:38:18.954419Z"}}